AirNav   Everest Fuels
 
 1251 users online  

SC01 Ashley Field Airport
Honea Path, South Carolina, USA

GOING TO HONEA PATH?


FAA INFORMATION EFFECTIVE 26 MARCH 2020

Location

FAA Identifier: SC01
Lat/Long: 34-26-47.0000N 082-21-52.0000W
34-26.783333N 082-21.866667W
34.4463889,-82.3644444
(estimated)
Elevation: 777 ft. / 237 m (estimated)
From city: 1 mile SE of HONEA PATH, SC
Time zone: UTC -4 (UTC -5 during Standard Time)
Zip code: 29654

Airport Operations

Airport use: Private use. Permission required prior to landing
Activation date: 10/2014
Control tower: no
ARTCC: ATLANTA CENTER
FSS: ANDERSON FLIGHT SERVICE STATION
Attendance: UNATTND
Wind indicator: yes
Segmented circle: no

Airport Communications

WX ASOS at GRD (16 nm SE): 121.125 (864-388-9115)
WX ASOS at AND (17 nm W): 120.675
WX AWOS-3 at GYH (19 nm N): 127.325 (864-277-5674)

Nearby radio navigation aids

VOR radial/distance  VOR name  Freq  Var
GRDr319/15.7GREENWOOD VORTAC115.5001W
ELWr086/20.9ELECTRIC CITY VORTAC108.6000E

 
NDB name  Hdg/Dist  Freq  Var  ID
CORONACA317/17.923907WGIW --. .. .--
FAIRMONT219/33.124805WFRT ..-. .-. -
ENOREE290/37.027807WEOE . --- .
UNION COUNTY254/38.432606WUOT ..- --- -

Airport Services

Runway Information

Runway 13/31

Dimensions: 3000 x 125 ft. / 914 x 38 m
Surface: turf, in good condition
Runway edge lights: non-standard
NSTD LOW INTENSITY LIGHTING SYSTEM - NOT COMMERCIAL GRADE.
RUNWAY 13  RUNWAY 31
Traffic pattern: leftleft

Runway 18/36

Dimensions: 2400 x 125 ft. / 732 x 38 m
Surface: turf, in good condition
Runway edge lights: non-standard
NSTD LOW INTENSITY LIGHTING SYSTEM - NOT COMMERCIAL GRADE.
RUNWAY 18  RUNWAY 36
Traffic pattern: leftleft

Airport Ownership and Management from official FAA records

Ownership: Privately-owned
Owner: LINDA A. BOLING
PO BOX 145
WARE SHOALS, SC 29692
Phone 864-861-2183
Manager: HONEA PATH FLYING CLUB
8577 HWY. 252
HONEA PATH, SC 29654
Phone 864-369-9386

Airport Operational Statistics

Aircraft based on the field: 11
Single engine airplanes: 11
    

Additional Remarks

FOR CD CTC ATLANTA ARTCC AT 770-210-7692.

Instrument Procedures

There are no published instrument procedures at SC01.

Some nearby airports with instrument procedures:

KGRD - Greenwood County Airport (16 nm SE)
KAND - Anderson Regional Airport (17 nm W)
KGYH - Donaldson Field Airport (19 nm N)
KLUX - Laurens County Airport (21 nm E)
KGMU - Greenville Downtown Airport (24 nm N)
 
Loc | Ops | Rwys | IFR | FBO | Links
Com | Nav | Svcs | Stats | Notes
Aerial photo
No photo
 
Airport distance calculator
Flying to Ashley Field Airport? Find the distance to fly.

From to SC01

Sunrise and sunset
Times for 09-Apr-2020
 Local
(UTC-4)
 Zulu
(UTC)
Morning civil twilight06:4010:40
Sunrise07:0611:06
Sunset19:5623:56
Evening civil twilight20:2200:22

Current date and time
Zulu (UTC)  09-Apr-2020 19:38:59
Local (UTC-4)  09-Apr-2020 15:38:59
 
METAR
KGRD 
16nm SE 
091856Z AUTO 27017G26KT 230V300 10SM CLR 28/07 A2965 RMK AO2 PK WND 24031/1838 RAB40E55 SLP907 P0000 T02780072
KAND 
18nm W 
091856Z AUTO 29018G26KT 10SM CLR 28/03 A2967 RMK AO2 PK WND 29033/1818 SLP036 T02780033
KGYH 
19nm N 
091847Z 27013G21KT 10SM CLR 27/03 A2965
KLUX 
21nm E 
091855Z AUTO 27014G21KT 10SM CLR 28/11 A2962 RMK AO2
KGMU 
24nm N 
091853Z 27019G26KT 10SM CLR 28/02 A2965 RMK AO2 PK WND 27033/1831 SLP029 T02780017
KLQK 
27nm NW 
091855Z AUTO 32013G21KT 10SM CLR 26/04 A2966 RMK AO2 T02620039
KGSP 
28nm N 
091853Z 25017G27KT 10SM CLR 27/03 A2963 RMK AO2 PK WND 27027/1845 SLP022 T02720033
KCEU 
29nm NW 
091854Z AUTO 28023G31KT 10SM CLR 26/03 A2968 RMK AO2 PK WND 27031/1828 SLP039 T02560028
TAF
KAND 
18nm W 
091744Z 0918/1018 28017G29KT P6SM FEW250 FM092300 27013G21KT P6SM FEW250 FM100300 27012KT P6SM FEW250 FM101100 32012G22KT P6SM FEW250
NOTAMs
Click for the latest NOTAMs
NOTAMs are issued by the DoD/FAA and will open in a separate window not controlled by AirNav.

 

 
 

Would you like to see your business listed on this page?

 If your business provides an interesting product or service to pilots, flight crews, aircraft, or users of the Ashley Field Airport, you should consider listing it here.  To start the listing process, click on the button below
 
Add a business
 

Other Pages about Ashley Field Airport

Update a link
 
Copyright © AirNav, LLC. All rights reserved. Privacy Policy  Contact